DELTA 2 R/B

Satellite information

Favourite Embed

Satellite Type and Status

ROCKET BODYIN ORBIT

Key statistics

Satellite DELTA 2 R/B at a glance.

Uptime

13029

Days in orbit

Revolutions

≈ 14.2

Per day

Orbit

LEO

Low Earth Orbit

Inclination

22.7

Latest

Satellite identification and parameters

Extended collection of information and parameters for DELTA 2 R/B.

Object identification

Identified? True

Debris? False

Object name: DELTA 2 R/B

International designator: 1990-034B

Object number (NORAD): 20571

Object ID (CCSDS): 20571

Country: UNITED STATES OF AMERICA (US)

Current information (Y/N): Y

RCS size: LARGE

Orbital parameters

Period: 101.296 minutes

Inclination: 22.7434 deg

SMA: 7198.181 km

Apoapsis: 1159.223 km

Periapsis: 480.869 km

RAAN: 319.5698 deg

Eccentricy: 0.0471198

Argument of periapsis: 62.5589 deg

Mean anomaly: 302.1992 deg

Mean motion: 14.21571135 rev/day

Mean motion (dot): 0.00003484 rev/day2

B* drag term: 0.00044270179 1/REarth

Two-line elements (TLE)

Creation date: Dec. 12, 2025, 10:14 a.m.

Reference frame: TEME

Reference center: EARTH

Epoch: Dec. 12, 2025, 5:59 a.m. UTC

TLE line 0: 0 DELTA 2 R/B

TLE line 1: 1 20571U 90034B 25346.24981671 .00003484 00000-0 44270-3 0 9998

TLE line 2: 2 20571 22.7434 319.5698 0471198 62.5589 302.1992 14.21571135831878

Live tracking on map

Real-time ground track for satellite DELTA 2 R/B.

In-orbit conjunctions

A list of the most updated potential collisions computed for object DELTA 2 R/B.

Target Orbit TCA Probability of collision Miss distance Type
ASTEX 1 SSO 2025-01-17 19:38:28 0.000821425 549.0 (m) PAYLOAD
CZ-6A DEB SSO 2024-11-22 20:58:25 0.0001079913 209.0 (m) DEBRIS

Associated space launch

Indonesian geostationary communications satellite

DELTA 2 R/B was lifted into orbit during the mission ‘Delta 6925-8 | Palapa B2R’, on board a Delta 6925-8 space rocket.

The launch took place on April 13, 1990, 10:28 p.m. from Space Launch Complex 17B.

For more information about the launch, click the button.

Launch to space Delta 6925-8 | Palapa B2R
Delta 6925-8 | Palapa B2R

Agency: N/A

Status: Launch Successful

Launch date: April 13, 1990, 10:28 p.m. UTC

Rocket: Delta 6925-8

Launch pad: Space Launch Complex 17B

Location: Cape Canaveral SFS, FL, USA

...

Latest news about this satellite

There are no fresh news available about this satellite. Check back as we update our databases every day.


Newsletter sign-up

Weekly statistics, charts and insights to help you stay on top of the space industry.